Terminal Aerodrome Forecast
Issued by NWS Boston, MA

Home | Current Version | Previous Version | Text Only | Print | Product List | Glossary On
Versions: 1 2 3 4 5 6 7 8 9 10 11 12 13 14 15 16 17 18 19 20 21 22 23 24 25 26 27 28 29 30 31 32 33 34 35 36 37 38 39 40 41 42 43 44 45 46 47
000
FTUS41 KBOX 040838 AAA
TAFBDL
TAF AMD
KBDL 040838Z 0409/0512 00000KT P6SM FEW140 OVC200
     FM042000 00000KT P6SM VCSH OVC070
     FM042300 00000KT P6SM BKN070
     FM050700 00000KT P6SM SCT070=

USA.gov is the U.S. government's official web portal to all federal, state and local government web resources and services.